Regional Weather Roundup
Issued by NWS Jackson, KY

Home | Current Version | Previous Version | Graphics & Text | Print | Product List | Glossary On
Versions: 1 2 3 4 5 6 7 8 9 10 11 12 13 14 15 16 17 18 19 20 21 22 23 24 25 26 27 28 29 30 31 32 33 34 35 36 37 38 39 40 41 42 43 44 45 46 47 48 49 50
000
ASUS43 KJKL 190510
RWRJKL

EAST KENTUCKY HOURLY WEATHER ROUNDUP
NATIONAL WEATHER SERVICE JACKSON KY
1200 AM EST THU JAN 19 2017

NOTE: "FAIR" INDICATES FEW OR NO CLOUDS BELOW 12,000 FEET WITH
NO SIGNIFICANT WEATHER AND/OR OBSTRUCTIONS TO VISIBILITY.

* THESE REPORTS ARE NOT UNDER NWS QUALITY CONTROL AND MAY NOT
  REPORT WEATHER SUCH AS PRECIPITATION AND FOG.

KYZ079-080-083-085-087-088-110-112-115-119-120-190600
...EASTERN KENTUCKY...

CITY           SKY/WX    TMP DP  RH WIND       PRES   REMARKS
JACKSON        CLOUDY    39  36  89 E3        30.12F
LONDON         PTCLDY    38  35  89 CALM      30.11F
SOMERSET*      PTCLDY    37  37 100 CALM      30.13S
MONTICELLO*    CLOUDY    39  38  96 NE12      30.13S WCI  32
WILLIAMSBURG*  PTCLDY    39  39 100 CALM      30.11F
MIDDLESBORO*   CLOUDY    40  39  99 CALM      30.13F
HARLAN APT*    PTCLDY    37  36  93 CALM      30.13F
PIKE CO APT*     N/A     38  38 100 CALM      30.12F
BIG SANDY APT* CLOUDY    40  38  94 CALM      30.14F
MOREHEAD APT*  CLOUDY    41  36  81 S3        30.15F
ASHLAND*       CLOUDY    43  37  81 NW3       30.14R
$$

KYZ035-036-041-042-044-050-067-078-099-190600
...CENTRAL KENTUCKY...

CITY           SKY/WX    TMP DP  RH WIND       PRES   REMARKS
MT STERLING*   PTCLDY    34  34 100 SE3       30.14S
FLEMING/MASON* CLOUDY    40  37  91 CALM      30.14F
DANVILLE*      MOCLDY    36  34  93 CALM      30.13S
LEXINGTON      PTCLDY    37  34  89 CALM      30.12F
FRANKFORT      PTCLDY    34  32  92 CALM      30.12F
LOUISVILLE     CLOUDY    41  35  79 CALM      30.14R
LEBANON*         N/A     39  36  87 E5        30.13S
GLASGOW*       MOCLDY    41  41 100 CALM      30.11S
BOWLING GREEN  CLOUDY    44  40  85 NE5       30.11F
$$

KYZ091>093-OHZ055-061-077-WVZ005-015-034-035-042-190600
...SOUTHERN OHIO/WEST VIRGINIA...

CITY           SKY/WX    TMP DP  RH WIND       PRES   REMARKS
COVINGTON      CLOUDY    39  37  92 SE5       30.11F
COLUMBUS       CLOUDY    40  36  86 W7        30.12S
DAYTON         DRZL/FOG  37  36  96 SW8       30.12S VSB 1/4 WCI  31
WILMINGTON     CLOUDY    38  36  92 SW7       30.12S WCI  33
HUNTINGTON     CLOUDY    44  37  76 CALM      30.13F
CHARLESTON     CLOUDY    43  37  79 S9        30.13F
PINEVILLE*     CLOUDY    37  36  93 MISG      30.17F
BECKLEY        CLOUDY    38  35  89 SW6       30.11F WCI  33
BLUEFIELD      CLOUDY    33  32  96 W7        30.11F WCI  27
LOGAN CO APT*  CLOUDY    41  37  87 CALM      30.12F
$$

VAZ002-007-008-TNZ017-027-036-066-071-190600
...SOUTHWEST VIRGINIA/EAST TENNESSEE...

CITY           SKY/WX    TMP DP  RH WIND       PRES   REMARKS
WISE*          PTCLDY    36  36 100 CALM      30.11F
JONESVILLE*      N/A     36  36 100 CALM      30.14F
ABINGDON*      CLOUDY    40  38  92 CALM      30.11F
BRISTOL        CLOUDY    38  36  92 CALM      30.12F
MORRISTOWN*    PTCLDY    43  39  87 CALM      30.10F
SEVIERVILLE*   CLEAR     41  39  93 E3        30.10F
KNOXVILLE      MOCLDY    48  43  82 NE3       30.08F
LAFOLLETTE*    CLEAR     43  41  93 CALM      30.13F
OAK RIDGE      MOCLDY    47  41  80 CALM      30.11F
CROSSVILLE     PTCLDY    41  40  96 CALM      30.10S
NASHVILLE      CLOUDY    46  42  86 CALM      30.10F
$$

...KEY TO REMARKS...
VSB - VISIBILITY IN MILES
WCI - WIND CHILL INDEX
HX  - HEAT INDEX

$$



USA.gov is the U.S. government's official web portal to all federal, state and local government web resources and services.